Zurück zum Katalog

GUANGCHUAN 02

AktivKommunikationVLEO
NORAD 62112·PAYLOAD·🇨🇳 China

Gestartet Nov 27, 2024 von Jiuquan Satellite Launch Center

Loading…

Nächste Überflüge (nächste 24 Stunden)

TLE

AktuellSource: Space-Track

Epoche: Sep 14, 2026, 22:51 UTC

1 62112U 24221B   26257.95237173  .00002184  00000-0  13381-3 0  9996
2 62112  49.9417  84.9457 0005945 348.6719  11.4097 15.14334631 99782

Verfolge GUANGCHUAN 02 in Echtzeit mit AllMySat

Download on the App Store